Other Public Products
Issued by NWS Grand Forks, ND

Home | Current Version | Previous Version | Text Only | Print | Product List | Glossary On
Versions: 1 2 3 4 5 6 7 8 9 10 11 12 13 14 15 16 17 18 19 20 21 22 23 24 25 26 27 28 29 30 31 32 33 34 35 36 37 38 39 40 41 42 43 44 45 46 47 48 49 50
000
FPUS83 KFGF 241110
OPUFGF
PRAIRIE TO PINES WEATHER ROUNDUP
NATIONAL WEATHER SERVICE EASTERN NORTH DAKOTA/GRAND FORKS ND
600 AM CDT SUN JUL 24 2016

 **SATELLITE DATA USED TO AUGMENT SKY COVER AT AUTOMATED STATIONS**
 *****  WEATHER ACROSS EASTERN NORTH DAKOTA  *****

CITY           SKY/WX    TMP DP  RH WIND       PRES   REMARKS
GRAND FORKS    PTCLDY    63  59  87 NW9       29.80R
GRAND FORKS AF CLEAR     63  59  86 NW9       29.81R
GRAND CITY NWS   N/A     61 N/A N/A NW6         N/A
BUXTON           N/A     62  61  97 W5          N/A
DEVILS LAKE    CLEAR     63  60  90 W12       29.87
FARGO          CLEAR     62  59  90 W8        29.83R
WAHPETON ARPT  SUNNY     61  55  82 NW9       29.86R
$$

 *****  WEATHER ACROSS CENTRAL AND WESTERN NORTH DAKOTA  *****

CITY           SKY/WX    TMP DP  RH WIND       PRES   REMARKS
JAMESTOWN      CLEAR     63  59  87 W12       29.91R
BISMARCK       CLEAR     61  56  83 NW7       29.99F
MINOT          CLEAR     65  55  70 W15       29.92R
MINOT AFB      PTCLDY    59  56  87 NW14      29.91R
GARRISON         N/A     58  56  93 W8        29.97R
WILLISTON      CLEAR     58  52  80 W10       30.00S
DICKINSON      CLEAR     51  48  89 W6        30.03S
HETTINGER      PTCLDY    52  47  83 NW3       30.08S
$$

 *****  OTHER OBSERVATIONS NORTHEAST NORTH DAKOTA  *****

CITY           SKY/WX    TMP DP  RH WIND       PRES   REMARKS
WALHALLA       NOT AVBL
LANGDON        FAIR      57  57 100 W8        29.83S
CAVALIER       FAIR      63  57  82 W9        29.78R
GRAFTON        FAIR      63  61  94 W9        29.81R
CANDO          NOT AVBL
FORT TOTTEN      N/A     63  61  92 NW7       29.95S
ROLLA            N/A     59  59 100 W7        29.87R
RUGBY          NOT AVBL
 ***** THE ABOVE OBSERVATIONS ARE NON NWS ARE NOT QUALITY
        CONTROLLED AND MAY MIS-REPORT RAIN FOR SNOW...
$$

 *****  OTHER OBSERVATIONS SOUTHEAST NORTH DAKOTA *****

CITY           SKY/WX    TMP DP  RH WIND       PRES   REMARKS
COOPERSTOWN    NOT AVBL
VALLEY CITY      N/A     63  63 100 W13       29.91R
OAKES            N/A    N/A N/A N/A MISG        N/A
GWINNER        FAIR      61  59  94 W9        29.91R
SHEYENNE NWR     N/A     61  58  89 W5        29.95S
BUFFALO          N/A     63  58  83 NW8         N/A
WYNDMERE       NOT AVBL
 ***** THE ABOVE OBSERVATIONS ARE NON NWS ARE NOT QUALITY
       CONTROLLED AND MAY MIS-REPORT RAIN FOR SNOW...
$$

  *****  WEATHER ACROSS NORTHERN MINNESOTA  *****

CITY           SKY/WX    TMP DP  RH WIND       PRES   REMARKS
FLAG ISLAND    MOCLDY    63  61  94 W15       29.68R
WARROAD        CLEAR     61  57  88 W7        29.73R
ROSEAU         PTCLDY    63  57  82 W8        29.75R
HALLOCK        CLEAR     61  59  94 W5        29.77R
THF RVR FALLS  CLEAR     61  59  93 W8        29.80R
HALSTAD        NOT AVBL
FOSSTON        CLEAR     61  57  88 W10       29.81R
BAUDETTE       CLEAR     63  60  90 W9        29.72R
WASKISH        CLEAR     66  63  88 W15       29.75R
CROOKSTON      CLEAR     61  61 100 W7        29.81R
$$
  *****  WEATHER ACROSS CENTRAL AND WEST MINNESOTA  *****

CITY           SKY/WX    TMP DP  RH WIND       PRES   REMARKS
BEMIDJI        CLEAR     64  61  88 W12       29.78R
PARK RAPIDS    CLEAR     66  61  84 NW12      29.80R
WADENA         CLEAR     64  63  94 W8        29.82R
DETROIT LAKES  CLEAR     63  59  88 W10G17    29.85R
MOORHEAD       CLEAR     64  59  82 W14G20    29.84R
FERGUS FALLS   CLEAR     63  61  94 NW8       29.86S
ELBOW LAKE     FAIR      63  61  94 NW7       29.86R
MORRIS MN      CLEAR     64  63  94 W8        29.86R
STAPLES        CLEAR     64  64 100 W7        29.81R
WHEATON        CLEAR     64  63  94 W9        29.89R
$$
  *****  WEATHER ELSEWHERE ACROSS MINNESOTA  *****

CITY           SKY/WX    TMP DP  RH WIND       PRES   REMARKS
DULUTH         MOCLDY    65  65 100 W3        29.75R FOG
INTRNTL FALLS  MOCLDY    68  66  93 W8        29.70R
ELY            CLOUDY    66  64  94 SW3       29.72S
CLOQUET        FOG       64  63  94 CALM      29.75R VSB 3/4
BRAINERD       CLEAR     68  67  96 W6        29.79R
HIBBING        FOG       64  64 100 VRB5      29.75R VSB 1/4
ALEXANDRIA     CLEAR     66  62  87 NW10      29.86R
SAINT CLOUD    CLEAR     69  69 100 NW7       29.79R
MINNEAPOLIS    CLOUDY    74  68  81 NW6       29.79R
$$

  *****  WEATHER ACROSS SOUTH DAKOTA  *****

CITY           SKY/WX    TMP DP  RH WIND       PRES   REMARKS
SIOUX FALLS    PTCLDY    67  65  93 NW6       29.91R
BROOKINGS      CLEAR     66  64  93 NW9         N/A
WATERTOWN      CLEAR     67  61  81 NW10      29.93R
HURON          CLEAR     60  57  89 NW8       29.94R
SISSETON         N/A     66  58  75 NW10      29.88R
ABERDEEN       CLEAR     64  56  75 NW13      29.94S
MITCHELL       PTCLDY    64  61  90 NW7       29.93S
PIERRE         PTCLDY    66  54  65 N12       29.96F
MOBRIDGE       CLEAR     64  56  75 NW12      29.97F
RAPID CITY     CLOUDY    66  48  52 N10       30.09F
$$

  *****  SOME WEATHER IN NEARBY STATES *****

CITY           SKY/WX    TMP DP  RH WIND       PRES   REMARKS
GLASGOW MT     CLEAR     56  52  86 SE6       30.02R
GREAT FALLS MT CLEAR     50  39  66 SW9       30.12S
CHEYENNE WY    LGT RAIN  72  42  34 SW15      30.21S
SCOTTSBLUFF NE PTCLDY    63  56  78 CALM      30.05F
OMAHA NE       PTCLDY    78  74  87 N8        29.85R
DES MOINES IA  CLOUDY    79  75  87 S3        29.82S
DAVENPORT IA   CLEAR     79  75  87 S9        29.87S
CHICAGO IL     PTCLDY    72  69  90 S12       29.90F
EAU CLAIRE WI  CLOUDY    70  69  97 N5        29.78S FOG
LA CROSSE WI   MOCLDY    76  74  93 S8        29.77R
$$

  *****  SOME NATIONAL WEATHER *****

CITY           SKY/WX    TMP DP  RH WIND       PRES   REMARKS
LA GUARDIA NY  MOSUNNY   78  62  57 NE3       29.97R
RALEIGH NC     PTCLDY    75  73  93 W3        30.02R
ATLANTA GA     PTCLDY    75  72  90 CALM      30.04R
NEW ORLEANS LA PTCLDY    82  76  81 CALM      29.96R
OKLAHOMA CITY  PTCLDY    73  71  93 S6        29.94R
ALBUQUERQUE NM CLOUDY    78  50  37 VRB5      30.11S
SALT LAKE CITY CLEAR     66  42  41 SE3       30.06S
LOS ANGELES CA PTCLDY    69  64  84 E3        29.82R
BOISE ID       CLEAR     60  42  51 S3        30.05S
SEATTLE WA     CLEAR     59  53  80 NE8       30.16F
$$

*** WEATHER ACROSS MANITOBA...SASKATCHEWAN AND ONTARIO ***
                ***ONTARIO***

CITY           SKY/WX    TMP DP  RH WIND       PRES   REMARKS
GERALDTON      LGT RAIN  66  57  72 SE7       29.79F
THUNDER BAY    MOCLDY    64  63  94 NE6       29.72F
SIOUX LOOKOUT  CLOUDY    64  63  94 S7        29.65S
TORONTO        MOCLDY    72  59  64 E5        30.01F
BIG TROUT LK   CLOUDY    63  61  94 SE14G23   29.63F
PICKLE LAKE    MOCLDY    63  55  77 SE13G21   29.61
DRYDEN         CLOUDY    66  66 100 S9        29.66S
KENORA         CLOUDY    64  63  94 W12       29.67R
$$
                *** MANITOBA***

CITY           SKY/WX    TMP DP  RH WIND       PRES   REMARKS
BRANDON        PTCLDY    55  55 100 W10       29.81R
DAUPHIN        CLEAR     59  57  94 W10       29.76R
ISLAND LAKE    LGT RAIN  61  61 100 NE7       29.56F
PILOT MOUND      N/A     57  55  94 W3          N/A
THE PAS        CLOUDY    63  59  88 N8        29.74R
THOMPSON       LGT RAIN  59  59 100 N6        29.71R FOG
WINNIPEG       PTCLDY    59  57  94 W12       29.73R
LYNN LAKE      CLEAR     54  52  94 MISG      29.77R
CHURCHILL      MOCLDY    52  50  93 NE10      29.77R
GILLAM         CLOUDY    61  59  94 NE13      29.69F
$$
                ***SASKATCHEWAN***

CITY           SKY/WX    TMP DP  RH WIND       PRES   REMARKS
ESTEVAN        PTCLDY    57  55  94 W9        29.95R
KINDERSLEY     MOCLDY    55  54  94 SW6       30.00S
LLOYDMINSTER   CLEAR     50  48  93 W9        29.95S
PRINCE ALBERT  NOT AVBL
REGINA         PTCLDY    55  54  94 W12       29.95R
YORKTON        CLEAR     57  55  94 W9        29.84R   C1F1C2F2C3F3C4F4C5F5C6F6C7F7C8F8C9F9CaFaCbFbCcFcCdFdCe!



USA.gov is the U.S. government's official web portal to all federal, state and local government web resources and services.